Location: Brno
(49.2000°N, 16.6330°E)
Time: 00:39:18

ISS - Visible Passes

Search period start: 26 October 2016 00:00
Search period end: 04 November 2016 23:00
Orbit: 399 x 408 km, 51.6° (Epoch: 26 October)

Date Brightness Start Highest point End Pass type
(mag) Time Alt. Az. Time Alt. Az. Time Alt. Az.
01 Nov -0.4 06:00:21 10° S 06:02:41 18° SE 06:05:02 10° E visible
02 Nov -0.1 05:09:26 10° SSE 05:10:27 11° SE 05:11:27 10° ESE visible
03 Nov -1.7 05:50:55 10° SSW 05:53:55 34° SSE 05:56:55 10° E visible
04 Nov -1.0 04:59:00 10° SSW 05:01:33 21° SE 05:04:08 10° E visible
